| time (UTC) | temp F | wind direction | speed knots | gust knots | rain 1hr in | rain 24hr in | rain mn in | humidity % | barometer mb |
| 20260507143147 | 77 | 47 | 0.9 | 0.9 | 0.00 | 0.00 | 0.00 | 25 | 1014.6 |
| 20260507142642 | 76 | 273 | 0.0 | 0.9 | 0.00 | 0.00 | 0.00 | 26 | 1014.4 |
| 20260507142139 | 76 | 347 | 0.0 | 0.0 | 0.00 | 0.00 | 0.00 | 26 | 1014.6 |
| 20260507141635 | 76 | 181 | 0.9 | 0.9 | 0.00 | 0.00 | 0.00 | 26 | 1014.4 |
| 20260507141132 | 78 | 237 | 0.0 | 0.9 | 0.00 | 0.00 | 0.00 | 25 | 1014.3 |
| 20260507140628 | 76 | 289 | 0.0 | 0.0 | 0.00 | 0.00 | 0.00 | 24 | 1014.3 |
| 20260507140126 | 75 | 18 | 0.9 | 0.9 | 0.00 | 0.00 | 0.00 | 24 | 1014.3 |
| 20260507135623 | 75 | 13 | 0.9 | 0.9 | 0.00 | 0.00 | 0.00 | 24 | 1014.3 |
| 20260507135121 | 74 | 347 | 1.7 | 1.7 | 0.00 | 0.00 | 0.00 | 25 | 1014.3 |
| 20260507134617 | 74 | 306 | 0.9 | 0.9 | 0.00 | 0.00 | 0.00 | 25 | 1014.2 |
| 20260507134113 | 74 | 352 | 0.9 | 1.7 | 0.00 | 0.00 | 0.00 | 25 | 1014.3 |
| 20260507133609 | 74 | 3 | 1.7 | 1.7 | 0.00 | 0.00 | 0.00 | 25 | 1014.1 |
| 20260507133107 | 74 | 46 | 0.9 | 0.9 | 0.00 | 0.00 | 0.00 | 24 | 1014.2 |
| 20260507132603 | 73 | 329 | 1.7 | 1.7 | 0.00 | 0.00 | 0.00 | 25 | 1014.0 |
| 20260507132059 | 73 | 359 | 3.5 | 3.5 | 0.00 | 0.00 | 0.00 | 25 | 1013.9 |
| 20260507131556 | 73 | 1 | 1.7 | 1.7 | 0.00 | 0.00 | 0.00 | 25 | 1014.0 |
| 20260507131054 | 73 | 314 | 3.5 | 5.2 | 0.00 | 0.00 | 0.00 | 25 | 1014.0 |
| 20260507130550 | 72 | 0 | 1.7 | 2.6 | 0.00 | 0.00 | 0.00 | 25 | 1013.9 |
| 20260507130049 | 72 | 0 | 3.5 | 5.2 | 0.00 | 0.00 | 0.00 | 25 | 1013.7 |
| 20260507125547 | 72 | 330 | 3.5 | 5.2 | 0.00 | 0.00 | 0.00 | 26 | 1013.9 |
| 20260507125044 | 72 | 70 | 5.2 | 7.0 | 0.00 | 0.00 | 0.00 | 26 | 1013.7 |
| 20260507124540 | 72 | 15 | 3.5 | 5.2 | 0.00 | 0.00 | 0.00 | 26 | 1013.8 |
| 20260507124038 | 71 | 37 | 5.2 | 7.0 | 0.00 | 0.00 | 0.00 | 26 | 1013.9 |
| 20260507123536 | 71 | 1 | 6.1 | 7.0 | 0.00 | 0.00 | 0.00 | 26 | 1013.6 |
| 20260507123033 | 71 | 338 | 1.7 | 5.2 | 0.00 | 0.00 | 0.00 | 26 | 1013.4 |
| 20260507122528 | 71 | 342 | 1.7 | 2.6 | 0.00 | 0.00 | 0.00 | 26 | 1013.5 |
| 20260507122024 | 71 | 354 | 1.7 | 1.7 | 0.00 | 0.00 | 0.00 | 26 | 1013.6 |
| 20260507121520 | 71 | 32 | 6.1 | 7.0 | 0.00 | 0.00 | 0.00 | 26 | 1013.6 |
| 20260507121016 | 71 | 359 | 7.0 | 7.8 | 0.00 | 0.00 | 0.00 | 26 | 1013.6 |
| 20260507120512 | 70 | 23 | 0.0 | 1.7 | 0.00 | 0.00 | 0.00 | 27 | 1013.7 |
| 20260507120009 | 69 | 312 | 1.7 | 3.5 | 0.00 | 0.00 | 0.00 | 28 | 1013.6 |
| 20260507115505 | 66 | 325 | 1.7 | 1.7 | 0.00 | 0.00 | 0.00 | 30 | 1013.8 |
| 20260507115001 | 67 | 330 | 0.0 | 0.9 | 0.00 | 0.00 | 0.00 | 30 | 1013.8 |
| 20260507114457 | 67 | 14 | 2.6 | 2.6 | 0.00 | 0.00 | 0.00 | 29 | 1013.9 |
| 20260507113955 | 63 | 313 | 0.9 | 0.9 | 0.00 | 0.00 | 0.00 | 36 | 1014.0 |
| 20260507113452 | 62 | 254 | 0.9 | 0.9 | 0.00 | 0.00 | 0.00 | 39 | 1014.1 |
| 20260507112949 | 61 | 276 | 0.0 | 0.0 | 0.00 | 0.00 | 0.00 | 42 | 1013.9 |
| 20260507112447 | 62 | 274 | 0.0 | 0.0 | 0.00 | 0.00 | 0.00 | 40 | 1014.0 |
| 20260507111943 | 63 | 288 | 0.0 | 0.0 | 0.00 | 0.00 | 0.00 | 39 | 1014.0 |
| 20260507111441 | 62 | 296 | 0.0 | 0.9 | 0.00 | 0.00 | 0.00 | 38 | 1014.1 |
| 20260507110937 | 62 | 319 | 0.9 | 0.9 | 0.00 | 0.00 | 0.00 | 39 | 1014.2 |
| 20260507110433 | 61 | 293 | 0.0 | 0.0 | 0.00 | 0.00 | 0.00 | 41 | 1014.1 |
| 20260507105930 | 61 | 254 | 0.0 | 0.0 | 0.00 | 0.00 | 0.00 | 40 | 1014.3 |
| 20260507105427 | 61 | 278 | 0.0 | 0.0 | 0.00 | 0.00 | 0.00 | 40 | 1014.0 |
| 20260507104923 | 62 | 278 | 0.0 | 0.0 | 0.00 | 0.00 | 0.00 | 39 | 1014.1 |
| 20260507104420 | 63 | 279 | 0.0 | 0.0 | 0.00 | 0.00 | 0.00 | 38 | 1014.2 |
| 20260507103916 | 63 | 212 | 0.9 | 0.9 | 0.00 | 0.00 | 0.00 | 37 | 1014.5 |
| 20260507103413 | 64 | 224 | 0.9 | 0.9 | 0.00 | 0.00 | 0.00 | 37 | 1014.4 |
| 20260507102909 | 64 | 259 | 0.0 | 0.0 | 0.00 | 0.00 | 0.00 | 36 | 1014.4 |
| 20260507102406 | 63 | 293 | 0.0 | 0.0 | 0.00 | 0.00 | 0.00 | 38 | 1014.3 |
| 20260507101902 | 63 | 324 | 0.0 | 0.0 | 0.00 | 0.00 | 0.00 | 37 | 1014.5 |
| 20260507101357 | 63 | 354 | 0.0 | 0.0 | 0.00 | 0.00 | 0.00 | 40 | 1014.5 |
| 20260507100854 | 63 | 291 | 0.9 | 0.9 | 0.00 | 0.00 | 0.00 | 40 | 1014.5 |
| 20260507100352 | 63 | 282 | 0.0 | 0.0 | 0.00 | 0.00 | 0.00 | 40 | 1014.4 |
| 20260507095850 | 62 | 288 | 0.0 | 0.0 | 0.00 | 0.00 | 0.00 | 40 | 1014.5 |
| 20260507095346 | 62 | 285 | 0.0 | 0.0 | 0.00 | 0.00 | 0.00 | 41 | 1014.4 |
| 20260507094843 | 63 | 274 | 0.0 | 0.0 | 0.00 | 0.00 | 0.00 | 40 | 1014.7 |
| 20260507094339 | 64 | 287 | 0.0 | 0.0 | 0.00 | 0.00 | 0.00 | 37 | 1014.6 |
| 20260507093837 | 64 | 295 | 0.0 | 0.0 | 0.00 | 0.00 | 0.00 | 37 | 1014.4 |
| 20260507093335 | 64 | 290 | 0.0 | 0.0 | 0.00 | 0.00 | 0.00 | 39 | 1014.3 |
| 20260507092833 | 65 | 317 | 0.0 | 0.0 | 0.00 | 0.00 | 0.00 | 39 | 1014.5 |
| 20260507092329 | 64 | 315 | 0.0 | 0.9 | 0.00 | 0.00 | 0.00 | 40 | 1014.3 |
| 20260507091825 | 65 | 292 | 0.0 | 0.0 | 0.00 | 0.00 | 0.00 | 41 | 1014.3 |
| 20260507091322 | 64 | 306 | 0.0 | 0.0 | 0.00 | 0.00 | 0.00 | 43 | 1014.4 |
| 20260507090818 | 65 | 317 | 0.9 | 0.9 | 0.00 | 0.00 | 0.00 | 44 | 1014.5 |
| 20260507090314 | 65 | 311 | 0.0 | 0.9 | 0.00 | 0.00 | 0.00 | 45 | 1014.5 |
| 20260507085811 | 65 | 313 | 0.9 | 0.9 | 0.00 | 0.00 | 0.00 | 44 | 1014.6 |
| 20260507085308 | 64 | 318 | 0.9 | 0.9 | 0.00 | 0.00 | 0.00 | 43 | 1014.4 |
| 20260507084806 | 64 | 295 | 0.0 | 0.0 | 0.00 | 0.00 | 0.00 | 43 | 1014.4 |
| 20260507084301 | 65 | 280 | 0.0 | 0.0 | 0.00 | 0.00 | 0.00 | 41 | 1014.6 |
| 20260507083759 | 64 | 310 | 0.9 | 0.9 | 0.00 | 0.00 | 0.00 | 41 | 1014.6 |
| 20260507083255 | 65 | 280 | 0.0 | 0.0 | 0.00 | 0.00 | 0.00 | 42 | 1014.8 |
| 20260507082752 | 65 | 282 | 0.0 | 0.0 | 0.00 | 0.00 | 0.00 | 41 | 1014.6 |
| 20260507082247 | 65 | 276 | 0.0 | 0.0 | 0.00 | 0.00 | 0.00 | 41 | 1014.6 |
| 20260507081744 | 66 | 272 | 0.0 | 0.0 | 0.00 | 0.00 | 0.00 | 40 | 1014.6 |
| 20260507081240 | 65 | 275 | 0.0 | 0.0 | 0.00 | 0.00 | 0.00 | 41 | 1014.7 |
| 20260507080737 | 65 | 288 | 0.0 | 0.0 | 0.00 | 0.00 | 0.00 | 40 | 1014.7 |
| 20260507080233 | 66 | 295 | 0.0 | 0.0 | 0.00 | 0.00 | 0.00 | 40 | 1014.6 |
| 20260507075729 | 66 | 319 | 0.9 | 0.9 | 0.00 | 0.00 | 0.00 | 39 | 1014.6 |
| 20260507075225 | 66 | 318 | 0.9 | 0.9 | 0.00 | 0.00 | 0.00 | 37 | 1014.7 |
| 20260507074722 | 66 | 297 | 0.0 | 0.9 | 0.00 | 0.00 | 0.00 | 37 | 1014.7 |
| 20260507074220 | 66 | 276 | 0.0 | 0.0 | 0.00 | 0.00 | 0.00 | 36 | 1014.7 |
| 20260507073716 | 67 | 272 | 0.0 | 0.0 | 0.00 | 0.00 | 0.00 | 35 | 1014.6 |
| 20260507073213 | 67 | 273 | 0.0 | 0.0 | 0.00 | 0.00 | 0.00 | 35 | 1014.7 |
| 20260507072711 | 67 | 252 | 0.0 | 0.0 | 0.00 | 0.00 | 0.00 | 36 | 1014.8 |
| 20260507072208 | 67 | 311 | 0.0 | 0.0 | 0.00 | 0.00 | 0.00 | 37 | 1014.7 |
| 20260507071705 | 68 | 311 | 0.0 | 0.0 | 0.00 | 0.00 | 0.00 | 37 | 1014.7 |
| 20260507071201 | 68 | 311 | 0.0 | 0.0 | 0.00 | 0.00 | 0.00 | 36 | 1014.6 |
| 20260507070659 | 68 | 311 | 0.9 | 0.9 | 0.00 | 0.00 | 0.00 | 36 | 1014.6 |
| 20260507070155 | 69 | 309 | 0.9 | 0.9 | 0.00 | 0.00 | 0.00 | 36 | 1014.7 |
| 20260507065652 | 69 | 306 | 0.9 | 0.9 | 0.00 | 0.00 | 0.00 | 34 | 1014.7 |
| 20260507065149 | 69 | 306 | 0.0 | 0.0 | 0.00 | 0.00 | 0.00 | 32 | 1015.0 |
| 20260507064646 | 69 | 306 | 0.9 | 0.9 | 0.00 | 0.00 | 0.00 | 32 | 1014.8 |
| 20260507064145 | 70 | 282 | 0.0 | 0.0 | 0.00 | 0.00 | 0.00 | 28 | 1014.7 |
| 20260507063642 | 71 | 277 | 0.0 | 0.0 | 0.00 | 0.00 | 0.00 | 27 | 1014.7 |
| 20260507063139 | 71 | 272 | 0.0 | 0.0 | 0.00 | 0.00 | 0.00 | 27 | 1014.7 |
| 20260507062635 | 71 | 265 | 0.0 | 0.0 | 0.00 | 0.00 | 0.00 | 26 | 1014.8 |
| 20260507062133 | 72 | 263 | 0.0 | 0.0 | 0.00 | 0.00 | 0.00 | 26 | 1014.6 |
| 20260507061631 | 72 | 260 | 0.0 | 0.0 | 0.00 | 0.00 | 0.00 | 25 | 1014.6 |
| 20260507061129 | 72 | 257 | 0.0 | 0.0 | 0.00 | 0.00 | 0.00 | 25 | 1014.5 |
| 20260507060627 | 72 | 269 | 0.0 | 0.0 | 0.00 | 0.00 | 0.00 | 25 | 1014.5 |
| 20260507060123 | 72 | 257 | 0.0 | 0.0 | 0.00 | 0.00 | 0.00 | 26 | 1014.6 |
| 20260507055618 | 72 | 258 | 0.0 | 0.0 | 0.00 | 0.00 | 0.00 | 26 | 1014.6 |
| 20260507055114 | 72 | 240 | 0.9 | 0.9 | 0.00 | 0.00 | 0.00 | 25 | 1014.6 |
| 20260507054610 | 73 | 255 | 0.9 | 0.9 | 0.00 | 0.00 | 0.00 | 25 | 1014.8 |
| 20260507054108 | 73 | 219 | 0.9 | 0.9 | 0.00 | 0.00 | 0.00 | 25 | 1014.5 |
| 20260507053606 | 73 | 260 | 0.0 | 0.0 | 0.00 | 0.00 | 0.00 | 25 | 1014.7 |
| 20260507053104 | 73 | 253 | 0.0 | 0.0 | 0.00 | 0.00 | 0.00 | 25 | 1014.8 |
| 20260507052602 | 73 | 262 | 0.0 | 0.0 | 0.00 | 0.00 | 0.00 | 25 | 1014.6 |
| 20260507052058 | 73 | 258 | 0.0 | 0.0 | 0.00 | 0.00 | 0.00 | 25 | 1014.8 |
| 20260507051555 | 73 | 261 | 0.0 | 0.9 | 0.00 | 0.00 | 0.00 | 25 | 1014.7 |
| 20260507051052 | 73 | 262 | 0.0 | 0.0 | 0.00 | 0.00 | 0.00 | 26 | 1014.5 |
| 20260507050549 | 72 | 234 | 0.0 | 0.0 | 0.00 | 0.00 | 0.00 | 26 | 1014.7 |
| 20260507050045 | 71 | 262 | 0.0 | 0.0 | 0.00 | 0.00 | 0.00 | 28 | 1014.7 |
| 20260507045542 | 71 | 262 | 0.0 | 0.0 | 0.00 | 0.00 | 0.00 | 28 | 1014.6 |
| 20260507045039 | 72 | 261 | 0.0 | 0.0 | 0.00 | 0.00 | 0.00 | 28 | 1014.5 |
| 20260507044536 | 73 | 259 | 0.0 | 0.0 | 0.00 | 0.00 | 0.00 | 27 | 1014.4 |
| 20260507044033 | 73 | 258 | 0.0 | 0.0 | 0.00 | 0.00 | 0.00 | 26 | 1014.5 |
| 20260507043528 | 74 | 258 | 0.0 | 0.0 | 0.00 | 0.00 | 0.00 | 25 | 1014.3 |
| 20260507043026 | 74 | 258 | 0.0 | 0.0 | 0.00 | 0.00 | 0.00 | 25 | 1014.3 |
| 20260507042522 | 74 | 259 | 0.0 | 0.0 | 0.00 | 0.00 | 0.00 | 25 | 1014.2 |
| 20260507042017 | 75 | 255 | 0.0 | 0.0 | 0.00 | 0.00 | 0.00 | 24 | 1014.2 |
| 20260507041515 | 75 | 250 | 0.0 | 0.0 | 0.00 | 0.00 | 0.00 | 24 | 1014.3 |
| 20260507041012 | 75 | 260 | 0.0 | 0.0 | 0.00 | 0.00 | 0.00 | 24 | 1014.2 |
| 20260507040508 | 76 | 247 | 0.9 | 0.9 | 0.00 | 0.00 | 0.00 | 23 | 1014.2 |
| 20260507040004 | 76 | 249 | 0.0 | 0.0 | 0.00 | 0.00 | 0.00 | 23 | 1014.0 |
| 20260507035500 | 76 | 257 | 0.0 | 0.0 | 0.00 | 0.00 | 0.00 | 23 | 1013.9 |
| 20260507034957 | 76 | 264 | 0.0 | 0.0 | 0.00 | 0.00 | 0.00 | 23 | 1013.8 |
| 20260507034454 | 77 | 269 | 0.0 | 0.0 | 0.00 | 0.00 | 0.00 | 22 | 1013.8 |
| 20260507033952 | 77 | 264 | 0.9 | 0.9 | 0.00 | 0.00 | 0.00 | 22 | 1013.9 |
| 20260507033449 | 77 | 254 | 0.9 | 0.9 | 0.00 | 0.00 | 0.00 | 22 | 1013.7 |
| 20260507032946 | 78 | 264 | 0.0 | 0.9 | 0.00 | 0.00 | 0.00 | 22 | 1013.8 |
| 20260507032443 | 77 | 265 | 0.0 | 0.9 | 0.00 | 0.00 | 0.00 | 22 | 1013.5 |
| 20260507031939 | 78 | 266 | 0.9 | 0.9 | 0.00 | 0.00 | 0.00 | 22 | 1013.7 |
| 20260507031436 | 78 | 181 | 1.7 | 1.7 | 0.00 | 0.00 | 0.00 | 22 | 1013.4 |
| 20260507030933 | 78 | 247 | 0.0 | 0.9 | 0.00 | 0.00 | 0.00 | 22 | 1013.4 |
| 20260507030430 | 78 | 272 | 0.9 | 0.9 | 0.00 | 0.00 | 0.00 | 21 | 1013.3 |
| 20260507025927 | 78 | 241 | 0.9 | 0.9 | 0.00 | 0.00 | 0.00 | 21 | 1013.3 |
| 20260507025424 | 78 | 258 | 1.7 | 1.7 | 0.00 | 0.00 | 0.00 | 21 | 1013.3 |
| 20260507024922 | 79 | 300 | 2.6 | 3.5 | 0.00 | 0.00 | 0.00 | 21 | 1013.2 |
| 20260507024419 | 79 | 226 | 0.9 | 1.7 | 0.00 | 0.00 | 0.00 | 21 | 1013.0 |
| 20260507023915 | 79 | 244 | 2.6 | 2.6 | 0.00 | 0.00 | 0.00 | 21 | 1012.9 |
| 20260507023412 | 79 | 233 | 2.6 | 3.5 | 0.00 | 0.00 | 0.00 | 21 | 1013.0 |
| 20260507022909 | 79 | 251 | 1.7 | 2.6 | 0.00 | 0.00 | 0.00 | 21 | 1012.9 |
| 20260507022406 | 79 | 260 | 0.9 | 0.9 | 0.00 | 0.00 | 0.00 | 21 | 1013.0 |
| 20260507021901 | 79 | 241 | 1.7 | 1.7 | 0.00 | 0.00 | 0.00 | 21 | 1012.9 |
| 20260507021357 | 79 | 234 | 4.3 | 5.2 | 0.00 | 0.00 | 0.00 | 21 | 1012.9 |
| 20260507020855 | 80 | 263 | 0.9 | 0.9 | 0.00 | 0.00 | 0.00 | 21 | 1012.6 |
| 20260507020351 | 80 | 243 | 1.7 | 1.7 | 0.00 | 0.00 | 0.00 | 21 | 1012.7 |
| 20260507015848 | 80 | 197 | 3.5 | 3.5 | 0.00 | 0.00 | 0.00 | 20 | 1012.8 |
| 20260507015346 | 81 | 194 | 3.5 | 3.5 | 0.00 | 0.00 | 0.00 | 20 | 1012.9 |
| 20260507014844 | 81 | 210 | 1.7 | 1.7 | 0.00 | 0.00 | 0.00 | 20 | 1012.7 |
| 20260507014339 | 81 | 262 | 1.7 | 1.7 | 0.00 | 0.00 | 0.00 | 20 | 1012.8 |
| 20260507013836 | 81 | 276 | 3.5 | 5.2 | 0.00 | 0.00 | 0.00 | 20 | 1012.9 |
| 20260507013333 | 82 | 264 | 1.7 | 2.6 | 0.00 | 0.00 | 0.00 | 20 | 1012.6 |
| 20260507012831 | 82 | 275 | 2.6 | 2.6 | 0.00 | 0.00 | 0.00 | 20 | 1012.7 |
| 20260507012326 | 82 | 268 | 1.7 | 1.7 | 0.00 | 0.00 | 0.00 | 20 | 1012.8 |
| 20260507011824 | 82 | 277 | 0.9 | 0.9 | 0.00 | 0.00 | 0.00 | 20 | 1012.7 |
| 20260507011320 | 82 | 237 | 2.6 | 3.5 | 0.00 | 0.00 | 0.00 | 20 | 1012.7 |
| 20260507010820 | 82 | 243 | 3.5 | 3.5 | 0.00 | 0.00 | 0.00 | 20 | 1012.5 |
| 20260507010316 | 83 | 201 | 2.6 | 3.5 | 0.00 | 0.00 | 0.00 | 19 | 1012.7 |
| 20260507005813 | 82 | 281 | 2.6 | 2.6 | 0.00 | 0.00 | 0.00 | 20 | 1012.5 |
| 20260507005310 | 83 | 286 | 1.7 | 1.7 | 0.00 | 0.00 | 0.00 | 20 | 1012.6 |
| 20260507004806 | 83 | 255 | 1.7 | 1.7 | 0.00 | 0.00 | 0.00 | 19 | 1012.5 |
| 20260507004304 | 83 | 268 | 2.6 | 2.6 | 0.00 | 0.00 | 0.00 | 19 | 1012.7 |
| 20260507003801 | 83 | 244 | 1.7 | 2.6 | 0.00 | 0.00 | 0.00 | 20 | 1012.7 |
| 20260507003256 | 84 | 242 | 2.6 | 3.5 | 0.00 | 0.00 | 0.00 | 19 | 1012.6 |
| 20260507002752 | 84 | 244 | 1.7 | 2.6 | 0.00 | 0.00 | 0.00 | 19 | 1012.5 |
| 20260507002248 | 83 | 228 | 1.7 | 2.6 | 0.00 | 0.00 | 0.00 | 19 | 1012.5 |
| 20260507001745 | 83 | 229 | 4.3 | 5.2 | 0.00 | 0.00 | 0.00 | 19 | 1012.5 |
| 20260507001242 | 84 | 328 | 2.6 | 2.6 | 0.00 | 0.00 | 0.00 | 19 | 1012.7 |
| 20260507000739 | 84 | 261 | 2.6 | 3.5 | 0.00 | 0.00 | 0.00 | 19 | 1012.6 |
| 20260507000235 | 84 | 261 | 3.5 | 5.2 | 0.00 | 0.00 | 0.00 | 19 | 1012.4 |
| 20260506235731 | 84 | 234 | 2.6 | 5.2 | 0.00 | 0.00 | 0.00 | 19 | 1012.5 |
| 20260506235227 | 84 | 251 | 1.7 | 2.6 | 0.00 | 0.00 | 0.00 | 19 | 1012.7 |
| 20260506234724 | 84 | 288 | 4.3 | 5.2 | 0.00 | 0.00 | 0.00 | 19 | 1012.5 |
| 20260506234221 | 84 | 293 | 1.7 | 1.7 | 0.00 | 0.00 | 0.00 | 20 | 1012.8 |
| 20260506233719 | 83 | 191 | 0.9 | 1.7 | 0.00 | 0.00 | 0.00 | 19 | 1012.7 |
| 20260506233215 | 83 | 252 | 3.5 | 3.5 | 0.00 | 0.00 | 0.00 | 19 | 1012.9 |
| 20260506232711 | 83 | 199 | 1.7 | 1.7 | 0.00 | 0.00 | 0.00 | 20 | 1012.8 |
| 20260506232206 | 83 | 181 | 0.9 | 1.7 | 0.00 | 0.00 | 0.00 | 19 | 1013.0 |
| 20260506231704 | 83 | 267 | 1.7 | 2.6 | 0.00 | 0.00 | 0.00 | 19 | 1013.0 |
| 20260506231203 | 83 | 235 | 1.7 | 2.6 | 0.00 | 0.00 | 0.00 | 20 | 1012.9 |
| 20260506230659 | 84 | 238 | 4.3 | 6.1 | 0.00 | 0.00 | 0.00 | 19 | 1013.0 |
| 20260506230156 | 83 | 289 | 1.7 | 1.7 | 0.00 | 0.00 | 0.00 | 19 | 1013.1 |
| 20260506225652 | 84 | 272 | 3.5 | 5.2 | 0.00 | 0.00 | 0.00 | 19 | 1013.1 |
| 20260506225149 | 84 | 277 | 2.6 | 3.5 | 0.00 | 0.00 | 0.00 | 19 | 1013.3 |
| 20260506224645 | 84 | 210 | 3.5 | 3.5 | 0.00 | 0.00 | 0.00 | 19 | 1013.3 |
| 20260506224142 | 83 | 190 | 1.7 | 2.6 | 0.00 | 0.00 | 0.00 | 20 | 1013.2 |
| 20260506223639 | 83 | 261 | 2.6 | 2.6 | 0.00 | 0.00 | 0.00 | 19 | 1013.5 |
| 20260506223135 | 82 | 272 | 3.5 | 3.5 | 0.00 | 0.00 | 0.00 | 20 | 1013.5 |
| 20260506222632 | 82 | 177 | 3.5 | 5.2 | 0.00 | 0.00 | 0.00 | 20 | 1013.5 |
| 20260506222128 | 83 | 217 | 2.6 | 2.6 | 0.00 | 0.00 | 0.00 | 20 | 1013.6 |
| 20260506221626 | 83 | 285 | 0.0 | 0.0 | 0.00 | 0.00 | 0.00 | 19 | 1013.8 |
| 20260506221124 | 83 | 221 | 3.5 | 5.2 | 0.00 | 0.00 | 0.00 | 20 | 1013.8 |
| 20260506220620 | 83 | 278 | 0.0 | 0.0 | 0.00 | 0.00 | 0.00 | 20 | 1013.6 |
| 20260506220115 | 83 | 177 | 4.3 | 6.1 | 0.00 | 0.00 | 0.00 | 20 | 1013.7 |
| 20260506215612 | 83 | 243 | 3.5 | 3.5 | 0.00 | 0.00 | 0.00 | 20 | 1013.7 |
| 20260506215108 | 83 | 249 | 4.3 | 5.2 | 0.00 | 0.00 | 0.00 | 20 | 1013.8 |
| 20260506214605 | 83 | 279 | 5.2 | 8.7 | 0.00 | 0.00 | 0.00 | 20 | 1013.9 |
| 20260506214102 | 83 | 151 | 1.7 | 1.7 | 0.00 | 0.00 | 0.00 | 20 | 1014.0 |
| 20260506213600 | 82 | 129 | 2.6 | 3.5 | 0.00 | 0.00 | 0.00 | 20 | 1014.1 |
| 20260506213057 | 81 | 206 | 2.6 | 3.5 | 0.00 | 0.00 | 0.00 | 21 | 1014.2 |
| 20260506212554 | 83 | 163 | 2.6 | 5.2 | 0.00 | 0.00 | 0.00 | 20 | 1014.2 |
| 20260506212049 | 81 | 244 | 2.6 | 3.5 | 0.00 | 0.00 | 0.00 | 20 | 1014.2 |
| 20260506211545 | 82 | 207 | 3.5 | 3.5 | 0.00 | 0.00 | 0.00 | 20 | 1014.3 |
| 20260506211042 | 82 | 4 | 0.9 | 0.9 | 0.00 | 0.00 | 0.00 | 20 | 1014.6 |
| 20260506210539 | 82 | 223 | 0.0 | 0.0 | 0.00 | 0.00 | 0.00 | 20 | 1014.7 |
| 20260506210035 | 79 | 141 | 3.5 | 5.2 | 0.00 | 0.00 | 0.00 | 21 | 1014.6 |
| 20260506205532 | 80 | 37 | 1.7 | 2.6 | 0.00 | 0.00 | 0.00 | 21 | 1014.8 |
| 20260506205027 | 82 | 264 | 4.3 | 6.1 | 0.00 | 0.00 | 0.00 | 21 | 1014.8 |
| 20260506204526 | 80 | 304 | 0.9 | 0.9 | 0.00 | 0.00 | 0.00 | 21 | 1014.8 |
| 20260506204022 | 81 | 141 | 2.6 | 2.6 | 0.00 | 0.00 | 0.00 | 20 | 1015.3 |
| 20260506203521 | 82 | 204 | 2.6 | 3.5 | 0.00 | 0.00 | 0.00 | 20 | 1015.0 |
| 20260506203017 | 80 | 60 | 2.6 | 2.6 | 0.00 | 0.00 | 0.00 | 21 | 1015.2 |
| 20260506202514 | 80 | 242 | 2.6 | 2.6 | 0.00 | 0.00 | 0.00 | 21 | 1015.2 |
| 20260506202010 | 80 | 216 | 3.5 | 5.2 | 0.00 | 0.00 | 0.00 | 21 | 1015.2 |
| 20260506201508 | 82 | 242 | 3.5 | 3.5 | 0.00 | 0.00 | 0.00 | 20 | 1015.4 |
| 20260506201004 | 81 | 259 | 2.6 | 2.6 | 0.00 | 0.00 | 0.00 | 20 | 1015.2 |
| 20260506200501 | 80 | 249 | 1.7 | 2.6 | 0.00 | 0.00 | 0.00 | 21 | 1015.3 |
| 20260506195957 | 80 | 212 | 1.7 | 1.7 | 0.00 | 0.00 | 0.00 | 21 | 1015.4 |
| 20260506195455 | 79 | 341 | 2.6 | 5.2 | 0.00 | 0.00 | 0.00 | 21 | 1015.5 |
| 20260506194950 | 79 | 0 | 2.6 | 3.5 | 0.00 | 0.00 | 0.00 | 22 | 1015.5 |
| 20260506194448 | 79 | 300 | 4.3 | 6.1 | 0.00 | 0.00 | 0.00 | 22 | 1015.6 |
| 20260506193939 | 80 | 233 | 1.7 | 1.7 | 0.00 | 0.00 | 0.00 | 22 | 1015.7 |
| 20260506193436 | 81 | 297 | 2.6 | 3.5 | 0.00 | 0.00 | 0.00 | 21 | 1015.6 |
| 20260506192933 | 79 | 109 | 3.5 | 3.5 | 0.00 | 0.00 | 0.00 | 22 | 1015.5 |
| 20260506192430 | 78 | 254 | 0.9 | 1.7 | 0.00 | 0.00 | 0.00 | 22 | 1015.6 |
| 20260506191926 | 78 | 241 | 4.3 | 6.1 | 0.00 | 0.00 | 0.00 | 22 | 1015.9 |
| 20260506191423 | 78 | 266 | 2.6 | 5.2 | 0.00 | 0.00 | 0.00 | 23 | 1015.8 |
| 20260506190920 | 78 | 255 | 2.6 | 2.6 | 0.00 | 0.00 | 0.00 | 22 | 1015.8 |
| 20260506190416 | 79 | 211 | 1.7 | 2.6 | 0.00 | 0.00 | 0.00 | 23 | 1016.0 |
| 20260506185913 | 77 | 180 | 1.7 | 1.7 | 0.00 | 0.00 | 0.00 | 23 | 1016.1 |
| 20260506185410 | 77 | 247 | 2.6 | 2.6 | 0.00 | 0.00 | 0.00 | 23 | 1015.9 |
| 20260506184908 | 77 | 249 | 4.3 | 5.2 | 0.00 | 0.00 | 0.00 | 24 | 1016.1 |
| 20260506184404 | 77 | 216 | 1.7 | 2.6 | 0.00 | 0.00 | 0.00 | 23 | 1016.3 |
| 20260506183902 | 78 | 271 | 0.9 | 1.7 | 0.00 | 0.00 | 0.00 | 23 | 1016.1 |
| 20260506183357 | 77 | 266 | 1.7 | 1.7 | 0.00 | 0.00 | 0.00 | 23 | 1016.3 |
| 20260506182854 | 78 | 273 | 3.5 | 5.2 | 0.00 | 0.00 | 0.00 | 24 | 1016.4 |
| 20260506182351 | 79 | 245 | 5.2 | 7.0 | 0.00 | 0.00 | 0.00 | 23 | 1016.5 |
| 20260506181848 | 77 | 228 | 2.6 | 2.6 | 0.00 | 0.00 | 0.00 | 24 | 1016.4 |
| 20260506181346 | 78 | 348 | 1.7 | 1.7 | 0.00 | 0.00 | 0.00 | 24 | 1016.4 |
| 20260506180843 | 77 | 308 | 1.7 | 1.7 | 0.00 | 0.00 | 0.00 | 24 | 1016.5 |
| 20260506180339 | 75 | 197 | 0.9 | 1.7 | 0.00 | 0.00 | 0.00 | 25 | 1016.6 |
| 20260506175836 | 75 | 250 | 0.9 | 0.9 | 0.00 | 0.00 | 0.00 | 27 | 1016.6 |
| 20260506175332 | 76 | 263 | 3.5 | 5.2 | 0.00 | 0.00 | 0.00 | 26 | 1016.6 |
| 20260506174824 | 75 | 296 | 1.7 | 2.6 | 0.00 | 0.00 | 0.00 | 26 | 1016.6 |
| 20260506174321 | 75 | 74 | 0.9 | 0.9 | 0.00 | 0.00 | 0.00 | 27 | 1016.8 |
| 20260506173819 | 75 | 321 | 1.7 | 1.7 | 0.00 | 0.00 | 0.00 | 26 | 1016.8 |
| 20260506173316 | 75 | 292 | 3.5 | 3.5 | 0.00 | 0.00 | 0.00 | 26 | 1016.8 |
| 20260506172813 | 74 | 323 | 1.7 | 1.7 | 0.00 | 0.00 | 0.00 | 27 | 1016.8 |
| 20260506172309 | 75 | 271 | 1.7 | 1.7 | 0.00 | 0.00 | 0.00 | 28 | 1016.7 |
| 20260506171806 | 75 | 243 | 1.7 | 2.6 | 0.00 | 0.00 | 0.00 | 28 | 1016.7 |
| 20260506171303 | 73 | 260 | 1.7 | 2.6 | 0.00 | 0.00 | 0.00 | 29 | 1016.8 |
| 20260506170800 | 73 | 356 | 0.9 | 1.7 | 0.00 | 0.00 | 0.00 | 29 | 1016.6 |
| 20260506170257 | 74 | 266 | 2.6 | 3.5 | 0.00 | 0.00 | 0.00 | 28 | 1016.9 |
| 20260506165755 | 74 | 262 | 1.7 | 1.7 | 0.00 | 0.00 | 0.00 | 29 | 1016.7 |
| 20260506165252 | 74 | 278 | 1.7 | 1.7 | 0.00 | 0.00 | 0.00 | 28 | 1016.7 |
| 20260506164749 | 73 | 204 | 0.0 | 0.9 | 0.00 | 0.00 | 0.00 | 28 | 1016.8 |
| 20260506164246 | 73 | 290 | 0.9 | 1.7 | 0.00 | 0.00 | 0.00 | 28 | 1016.6 |
| 20260506163743 | 72 | 294 | 2.6 | 3.5 | 0.00 | 0.00 | 0.00 | 29 | 1016.7 |
| 20260506163237 | 73 | 270 | 3.5 | 3.5 | 0.00 | 0.00 | 0.00 | 29 | 1016.7 |
| 20260506162734 | 73 | 304 | 0.9 | 1.7 | 0.00 | 0.00 | 0.00 | 29 | 1016.5 |
| 20260506162232 | 73 | 278 | 0.0 | 0.0 | 0.00 | 0.00 | 0.00 | 29 | 1016.5 |
| 20260506161729 | 72 | 152 | 0.0 | 0.9 | 0.00 | 0.00 | 0.00 | 29 | 1016.5 |
| 20260506161226 | 71 | 261 | 2.6 | 2.6 | 0.00 | 0.00 | 0.00 | 30 | 1016.6 |
| 20260506160724 | 71 | 280 | 0.9 | 0.9 | 0.00 | 0.00 | 0.00 | 30 | 1016.5 |
| 20260506160220 | 71 | 220 | 0.9 | 1.7 | 0.00 | 0.00 | 0.00 | 31 | 1016.4 |
| 20260506155718 | 70 | 273 | 0.0 | 0.9 | 0.00 | 0.00 | 0.00 | 31 | 1016.5 |
| 20260506155215 | 70 | 196 | 1.7 | 2.6 | 0.00 | 0.00 | 0.00 | 31 | 1016.4 |
| 20260506153317 | 69 | 305 | 0.0 | 0.0 | 0.00 | 0.00 | 0.00 | 31 | 1016.5 |
| 20260506152814 | 69 | 258 | 0.0 | 0.9 | 0.00 | 0.00 | 0.00 | 32 | 1016.5 |
| 20260506152311 | 70 | 245 | 1.7 | 1.7 | 0.00 | 0.00 | 0.00 | 31 | 1016.6 |
| 20260506151810 | 68 | 296 | 0.0 | 0.0 | 0.00 | 0.00 | 0.00 | 32 | 1016.5 |
| 20260506151306 | 67 | 299 | 0.0 | 0.9 | 0.00 | 0.00 | 0.00 | 34 | 1016.7 |
| 20260506150803 | 67 | 268 | 0.9 | 1.7 | 0.00 | 0.00 | 0.00 | 34 | 1016.7 |
| 20260506150304 | 66 | 292 | 1.7 | 1.7 | 0.00 | 0.00 | 0.00 | 34 | 1016.7 |
| 20260506145757 | 67 | 237 | 1.7 | 1.7 | 0.00 | 0.00 | 0.00 | 34 | 1016.7 |
| 20260506145253 | 66 | 278 | 0.0 | 0.9 | 0.00 | 0.00 | 0.00 | 35 | 1016.4 |
| 20260506144751 | 65 | 302 | 0.9 | 0.9 | 0.00 | 0.00 | 0.00 | 36 | 1016.6 |
| 20260506144248 | 64 | 291 | 0.0 | 0.9 | 0.00 | 0.00 | 0.00 | 36 | 1016.5 |
| 20260506143745 | 64 | 253 | 0.9 | 0.9 | 0.00 | 0.00 | 0.00 | 36 | 1016.6 |